FW8055 Weather Reports


time (UTC)temp
C
wind
direction
speed
KPH
gust
KPH
rain 1hr
cm
rain 24hr
cm
rain mn
cm
humidity
%
barometer
mb
20260505213049 17 0 0.0 3.2 0.00 0.00 0.00 70 1016.5
20260505211549 17 62 0.0 6.4 0.00 0.00 0.00 69 1016.6
20260505210046 16 0 1.6 8.0 0.00 0.00 0.00 70 1016.7
20260505204550 16 342 3.2 8.0 0.00 0.00 0.00 69 1016.7
20260505203047 16 0 1.6 6.4 0.00 0.00 0.00 72 1016.8
20260505201545 16 13 1.6 8.0 0.00 0.00 0.00 71 1016.9
20260505200053 16 340 3.2 8.0 0.00 0.00 0.00 71 1016.9
20260505194543 15 0 0.0 4.8 0.00 0.00 0.00 72 1017.0
20260505193046 15 24 0.0 4.8 0.00 0.00 0.00 73 1017.1
20260505191543 15 0 0.0 4.8 0.00 0.00 0.00 74 1017.0
20260505190051 15 23 0.0 4.8 0.00 0.00 0.00 75 1017.0
20260505184549 15 81 1.6 4.8 0.00 0.00 0.00 75 1017.0
20260505183050 15 0 0.0 4.8 0.00 0.00 0.00 74 1017.0
20260505181546 14 0 0.0 3.2 0.00 0.00 0.00 77 1016.8
20260505180045 14 0 0.0 3.2 0.00 0.00 0.00 77 1016.8
20260505174552 13 22 1.6 4.8 0.00 0.00 0.00 77 1016.8
20260505173051 13 60 0.0 4.8 0.00 0.00 0.00 76 1016.7
20260505171546 13 113 0.0 3.2 0.00 0.00 0.00 77 1016.6
20260505170046 13 22 0.0 3.2 0.00 0.00 0.00 78 1016.7
20260505164546 13 0 0.0 3.2 0.00 0.00 0.00 79 1016.7
20260505163046 13 0 0.0 3.2 0.00 0.00 0.00 79 1016.8
20260505161545 13 0 0.0 4.8 0.00 0.00 0.00 78 1016.7
20260505153049 12 0 0.0 1.6 0.00 0.00 0.00 81 1016.8
20260505151546 12 0 0.0 6.4 0.00 0.00 0.00 82 1016.7
20260505124557 12 0 0.0 0.0 0.00 0.00 0.00 85 1015.9
20260505123045 12 0 0.0 0.0 0.00 0.00 0.00 85 1015.8
20260505121544 12 0 0.0 0.0 0.00 0.00 0.00 85 1015.6
20260505120052 12 0 0.0 3.2 0.00 0.00 0.00 86 1015.6
20260505114548 12 0 0.0 1.6 0.00 0.00 0.00 86 1015.6
20260505113041 12 0 0.0 0.0 0.00 0.00 0.00 86 1015.8
20260505111547 12 0 0.0 1.6 0.00 0.00 0.00 86 1015.7
20260505101547 12 0 0.0 3.2 0.00 0.00 0.00 87 1015.4
20260505100047 12 0 0.0 0.0 0.00 0.00 0.00 88 1015.4
20260505094544 12 0 0.0 3.2 0.00 0.00 0.00 87 1015.3
20260505093043 12 0 0.0 3.2 0.00 0.00 0.00 88 1015.2
20260505091550 12 0 0.0 1.6 0.00 0.00 0.00 87 1015.2
20260505090048 12 0 0.0 0.0 0.00 0.00 0.00 87 1015.2
20260505084545 12 0 0.0 0.0 0.00 0.00 0.00 86 1015.3
20260505083042 12 34 0.0 1.6 0.00 0.00 0.00 86 1015.3
20260505081541 12 0 0.0 1.6 0.00 0.00 0.00 85 1015.3
20260505080051 12 0 0.0 0.0 0.00 0.00 0.00 85 1015.3
20260505074544 12 0 0.0 3.2 0.00 0.00 0.00 85 1015.4
20260505073045 12 0 0.0 0.0 0.00 0.00 0.00 84 1015.5
20260505071539 12 0 0.0 4.8 0.00 0.00 0.00 83 1015.4
20260505070051 12 58 0.0 3.2 0.00 0.00 0.00 82 1015.3
20260505064542 13 32 0.0 4.8 0.00 0.00 0.00 81 1015.3
20260505063057 13 0 0.0 3.2 0.00 0.00 0.00 81 1015.1
20260505061544 13 41 0.0 4.8 0.00 0.00 0.00 81 1015.0
20260505060042 13 0 0.0 4.8 0.00 0.00 0.00 80 1015.1
20260505054551 13 0 0.0 1.6 0.00 0.00 0.00 80 1015.0
20260505053055 13 27 0.0 4.8 0.00 0.00 0.00 79 1014.7
20260505051545 13 0 0.0 4.8 0.00 0.00 0.00 79 1014.7
20260505041554 13 0 0.0 4.8 0.00 0.00 0.00 79 1014.4
20260505040051 13 14 0.0 3.2 0.00 0.00 0.00 79 1014.1
20260505034545 13 27 0.0 3.2 0.00 0.00 0.00 79 1013.8
20260505033046 14 31 0.0 4.8 0.00 0.00 0.00 78 1013.8
20260505031553 14 17 0.0 4.8 0.00 0.00 0.00 77 1013.5
20260505030043 15 32 1.6 4.8 0.00 0.00 0.00 75 1013.4
20260505024556 15 11 1.6 8.0 0.00 0.00 0.00 74 1013.2
20260505023043 16 49 0.0 8.0 0.00 0.00 0.00 73 1013.1
20260505021547 16 0 1.6 11.3 0.00 0.00 0.00 72 1013.0
20260505020045 17 24 1.6 6.4 0.00 0.00 0.00 71 1012.9
20260505014602 17 0 1.6 6.4 0.00 0.00 0.00 70 1013.1
20260505013043 17 0 0.0 14.5 0.00 0.00 0.00 69 1012.9
20260505011550 18 5 0.0 6.4 0.00 0.00 0.00 68 1012.9
20260505010045 18 13 1.6 12.9 0.00 0.00 0.00 67 1013.0
20260505004548 18 57 1.6 9.7 0.00 0.00 0.00 66 1013.0
20260505003045 19 19 1.6 8.0 0.00 0.00 0.00 67 1012.9
20260505001545 19 42 3.2 11.3 0.00 0.00 0.00 66 1012.8
20260505000054 19 348 1.6 8.0 0.00 0.00 0.00 66 1012.9
20260504234548 20 29 1.6 14.5 0.00 0.00 0.00 65 1013.0
20260504233102 19 25 1.6 8.0 0.00 0.00 0.00 64 1012.8
20260504231544 19 100 3.2 8.0 0.00 0.00 0.00 64 1013.1
20260504230046 20 12 3.2 12.9 0.00 0.00 0.00 64 1013.2
20260504224543 20 32 1.6 12.9 0.00 0.00 0.00 64 1013.4
20260504223056 19 45 0.0 6.4 0.00 0.00 0.00 66 1013.6
20260504221543 18 221 3.2 6.4 0.00 0.00 0.00 67 1013.8
20260504220044 18 76 1.6 8.0 0.00 0.00 0.00 68 1014.0